Theta_e
286 286 287 287 287 287 287 287 287 287 287 287 287 287 287 286 286 286 285 285 284 283 282 282 282 281 281 281 282 282 282 282 282 281 281 281 281 281 281 281 281 280 280 280 279 278 277 277 276 277 277 277 277 278 278 278 279 279 279 279 280 281 281 282 283 283 284 284 283 284 284 283 283 284 284 284 284 285 285 285 285 285 285 284 284
286 286 286 287 287 287 287 287 287 287 287 287 286 286 286 286 285 285 284 284 283 282 282 281 281 281 281 281 281 281 281 281 281 281 281 280 280 280 280 280 279 279 279 279 278 277 277 276 276 276 276 276 277 277 277 278 278 278 279 279 279 280 280 281 281 282 282 282 283 283 283 283 283 283 284 284 284 284 284 284 284 285 285 285 285
286 286 286 287 287 287 287 287 287 286 286 286 286 286 285 285 284 284 283 283 282 281 281 281 281 281 281 281 281 281 280 280 280 280 280 279 279 279 279 278 278 278 277 277 276 276 275 275 275 275 275 275 276 276 277 277 277 278 278 278 279 279 279 280 280 281 281 281 282 282 282 282 283 283 283 283 283 283 283 283 283 284 284 285 285
286 286 286 286 286 286 287 286 286 286 286 286 286 285 285 284 284 283 283 282 282 281 281 281 281 280 280 280 280 280 280 279 279 279 279 278 278 278 278 277 277 276 276 275 275 274 274 274 274 274 274 274 275 275 276 276 276 277 277 277 278 278 278 279 279 280 280 280 281 281 281 282 282 282 282 282 282 282 283 283 283 283 284 284 285
286 286 286 286 286 286 286 286 285 286 286 286 285 285 284 284 283 283 282 282 281 281 280 280 280 280 280 280 280 279 279 279 279 278 278 277 277 277 277 276 276 275 274 274 273 273 273 273 273 273 273 273 274 274 275 275 275 275 276 276 277 277 277 278 278 279 279 280 280 280 281 281 281 282 282 282 282 282 283 283 283 283 283 284 284
286 286 286 286 286 286 285 285 285 286 285 285 285 284 284 283 283 282 282 281 281 280 280 280 280 280 280 279 279 279 278 278 278 277 277 276 276 276 276 275 274 274 273 273 273 272 272 272 272 273 273 273 273 274 274 274 275 275 276 276 277 277 278 278 278 279 279 280 280 280 281 281 281 281 281 282 282 282 283 283 283 283 283 283 283
286 286 286 286 285 285 285 285 285 285 285 285 284 283 283 282 282 281 281 280 280 280 280 280 280 279 279 279 279 278 278 277 277 276 276 276 276 275 275 274 273 273 272 272 272 272 272 272 272 272 273 273 273 273 274 274 274 275 275 276 276 277 277 277 278 278 278 279 279 279 279 279 280 280 280 281 281 282 282 283 283 283 283 283 284
286 286 286 285 285 285 285 285 285 285 285 284 283 283 282 282 281 281 280 280 280 280 280 279 279 279 279 278 278 278 277 277 276 275 275 275 275 274 273 272 272 272 272 272 272 272 272 272 272 272 272 272 273 273 273 274 274 274 275 275 276 276 276 276 277 277 277 277 278 278 279 279 279 280 280 280 280 281 282 282 282 283 283 283 284
286 286 286 285 285 285 285 285 285 285 284 283 283 282 282 281 281 280 280 280 279 279 279 279 279 279 278 278 277 277 277 276 275 275 274 274 273 272 272 272 272 272 272 272 272 272 271 271 271 272 272 272 272 272 272 273 273 274 274 274 275 275 275 276 276 276 277 277 278 278 278 279 279 279 280 280 281 281 281 282 282 282 283 283 283
287 286 286 286 285 285 285 285 285 285 284 283 283 282 282 281 280 280 279 279 279 279 279 279 278 278 278 277 277 277 276 276 275 274 274 273 272 272 272 272 272 272 272 272 271 271 271 271 271 271 271 270 270 270 271 271 272 272 273 273 273 273 274 274 274 275 276 276 277 277 277 278 278 278 279 279 279 280 281 281 282 282 283 283 283
287 287 286 286 286 286 286 285 285 284 283 283 283 282 281 280 279 279 279 279 279 278 278 278 278 277 277 277 276 276 276 275 274 274 274 272 271 271 272 272 272 272 272 271 271 271 270 270 269 269 269 269 269 270 270 271 271 271 272 272 272 273 273 273 274 274 275 275 275 276 276 276 276 277 277 277 278 278 279 280 280 281 282 282 283
287 287 286 286 286 286 285 285 284 283 282 282 282 281 280 280 279 279 278 278 278 278 278 278 277 277 277 276 276 275 275 275 274 274 273 272 270 271 272 271 272 272 271 271 270 270 269 269 269 269 268 269 269 269 269 270 270 270 271 271 272 272 272 273 273 273 274 274 274 274 275 275 275 275 275 276 276 277 277 277 278 279 280 281 282
287 286 286 286 286 285 285 284 283 282 282 282 281 281 280 279 279 278 278 278 278 278 277 277 277 276 276 275 275 275 275 275 274 273 273 271 270 271 272 272 271 271 270 269 269 269 269 268 268 268 268 269 269 269 269 269 269 270 270 271 271 271 272 272 273 273 273 273 273 273 274 274 274 274 274 275 275 275 275 276 276 277 278 279 280
286 286 286 285 285 284 283 283 282 282 281 281 281 280 279 279 278 278 278 278 278 277 277 277 276 276 275 275 275 275 275 274 273 273 272 271 270 271 272 271 270 270 269 268 268 268 268 268 268 268 268 269 269 269 269 269 269 270 270 271 271 271 272 272 272 273 273 273 273 273 273 273 273 274 274 274 275 275 275 276 276 277 277 278 278
286 285 285 285 284 283 283 282 282 282 282 282 281 280 279 278 278 278 277 277 277 277 276 276 276 275 275 274 274 274 274 274 273 272 272 270 270 271 271 269 269 269 269 268 268 268 268 268 268 269 269 269 269 269 270 270 271 271 271 271 272 272 272 272 273 273 273 273 273 273 273 273 274 274 275 275 276 276 276 277 277 277 278 278 278
285 285 284 284 283 283 282 282 282 282 282 282 280 279 279 278 277 277 277 277 277 276 276 276 275 274 274 274 274 274 274 274 273 272 271 270 269 269 269 269 269 269 269 269 269 269 269 269 269 269 269 269 270 270 271 272 272 272 272 273 273 273 273 273 274 274 274 274 274 274 274 275 275 276 276 276 276 277 277 277 277 277 277 278 278
285 284 284 283 283 283 283 282 282 282 282 281 280 279 278 277 277 277 277 276 276 276 275 275 274 274 273 273 273 274 274 274 273 272 271 270 269 269 269 269 269 269 269 269 269 269 269 269 270 270 270 270 270 271 272 273 273 274 274 274 274 274 274 274 274 274 275 275 275 275 276 276 276 276 277 277 277 277 277 277 276 276 276 276 276
284 284 283 283 283 283 283 282 282 281 281 280 279 278 277 277 277 276 276 276 276 275 275 274 274 273 273 273 273 273 274 273 272 271 271 270 269 269 269 269 269 269 270 270 270 270 270 271 271 271 271 271 272 272 273 274 274 275 275 275 275 275 275 275 274 275 275 275 275 275 276 276 276 276 276 276 276 276 276 276 276 276 276 276 276
285 284 283 283 283 283 282 282 281 280 280 279 279 278 277 277 276 276 276 275 275 275 274 274 273 273 273 273 273 273 273 273 272 271 271 269 269 269 270 270 270 270 270 270 271 271 271 272 272 272 272 272 273 274 274 275 275 275 275 275 275 275 275 275 275 275 275 275 275 275 275 275 276 276 276 276 276 276 276 276 276 276 276 276 276
285 284 283 282 282 282 281 281 280 279 279 279 278 277 277 276 275 275 275 275 274 274 274 273 273 273 272 273 273 273 273 272 272 271 270 269 269 270 270 270 271 271 271 271 272 272 272 272 272 272 273 273 274 274 275 275 275 275 275 275 276 276 276 276 276 276 276 276 276 276 275 276 276 276 276 275 275 275 275 275 275 275 275 275 275
284 283 282 282 282 281 280 280 279 279 278 278 277 276 276 275 275 274 274 274 274 273 273 273 272 272 272 272 272 272 272 272 271 270 269 268 269 270 271 271 272 272 272 273 273 273 273 273 273 273 273 274 274 275 275 276 276 276 276 276 276 276 276 276 276 276 276 276 276 276 275 275 275 275 275 275 275 275 275 275 275 275 275 275 275
283 282 282 282 281 280 280 279 278 278 278 277 277 276 275 275 274 274 273 273 273 273 273 272 272 272 272 272 272 272 271 271 270 269 268 268 270 271 272 272 273 273 273 273 273 273 274 274 273 273 274 274 275 275 276 276 276 276 276 276 276 276 276 276 276 276 275 275 275 275 275 274 274 274 274 274 274 274 274 274 274 274 274 274 275
283 282 281 281 280 280 279 278 278 277 277 277 276 275 274 274 273 273 273 273 272 272 272 272 272 272 272 271 271 271 271 271 270 268 268 269 270 271 272 273 273 273 274 274 274 274 274 273 273 273 274 275 275 275 276 275 275 275 275 275 276 276 275 274 274 273 273 273 273 273 273 273 273 273 273 273 273 273 273 273 273 274 274 274 274
282 281 281 280 280 279 278 278 277 277 277 276 276 275 274 273 273 272 272 272 272 272 272 272 271 271 271 270 270 270 270 270 269 268 268 269 271 271 272 272 273 274 274 274 273 273 273 273 273 273 274 274 274 274 274 274 274 274 274 274 274 273 272 272 271 271 271 271 271 272 272 272 272 272 272 273 273 273 273 273 273 273 273 273 274
281 281 281 280 280 279 278 277 277 277 276 275 275 274 273 272 272 272 272 272 272 271 271 271 271 270 270 269 268 268 268 268 268 268 268 269 270 271 272 273 273 273 273 272 272 272 272 272 272 272 272 272 272 272 271 271 272 272 272 272 271 270 270 270 270 270 270 271 271 271 271 272 272 272 272 273 273 273 273 273 273 273 273 273 273
281 281 280 280 279 278 277 277 276 276 275 275 274 273 272 272 271 271 271 271 271 271 271 270 270 269 268 267 267 267 268 268 268 268 269 269 270 271 272 273 273 272 272 271 270 270 271 270 270 270 270 270 270 269 269 269 269 270 270 269 269 269 269 269 269 270 270 271 271 271 272 272 272 273 273 273 273 273 273 273 273 273 273 273 273
281 280 280 279 278 278 277 276 276 275 274 274 273 272 272 271 271 271 271 271 271 270 270 270 269 268 267 267 267 267 268 269 269 268 269 270 271 272 272 272 272 271 270 270 269 269 269 268 268 268 267 267 267 267 267 267 267 267 267 267 267 267 267 267 268 268 269 270 271 271 272 272 273 273 273 273 274 274 274 274 273 274 274 274 274
280 279 279 278 278 277 276 275 275 274 273 273 272 272 271 271 271 271 271 270 270 269 269 269 268 268 267 267 267 268 268 269 269 269 270 271 271 272 272 272 271 271 270 269 269 268 267 267 267 266 265 264 264 264 264 264 264 264 264 265 265 265 265 265 266 267 268 269 270 271 271 272 272 273 273 274 274 274 274 274 274 274 274 274 274
278 278 278 277 277 276 275 274 274 273 272 272 272 271 271 271 270 271 271 270 270 269 268 268 268 268 267 267 268 268 269 269 269 270 270 271 272 272 272 272 271 270 269 269 268 267 266 266 265 263 262 262 262 263 263 263 263 263 263 263 263 263 264 265 266 267 267 268 269 270 270 271 272 273 274 274 274 274 274 274 274 274 274 274 274
277 277 277 276 276 275 275 274 273 272 272 272 271 271 271 270 270 270 271 270 270 269 268 267 268 268 268 268 269 269 269 270 270 270 271 271 272 272 271 271 270 269 269 268 267 266 265 263 262 261 261 261 262 262 262 262 262 262 262 263 263 263 263 264 265 266 266 267 268 268 269 271 273 274 274 275 275 275 275 275 275 275 275 275 275
276 276 276 276 276 275 275 274 273 272 271 271 270 270 270 270 270 269 269 269 269 269 268 267 268 269 269 269 270 269 269 269 269 270 270 271 271 271 271 270 269 268 267 267 266 265 263 261 261 261 261 261 261 261 261 261 261 262 262 262 262 263 263 264 264 265 265 266 267 268 269 271 273 274 274 274 275 275 275 275 275 275 276 276 276
276 276 276 276 275 275 274 273 271 271 270 270 269 269 269 269 270 270 269 268 268 268 269 268 268 268 269 270 270 269 268 268 269 269 270 271 271 270 269 268 267 267 266 266 265 264 262 261 261 261 260 260 261 261 261 261 261 261 261 262 262 263 263 263 264 264 265 266 267 268 269 271 272 272 273 274 275 275 275 276 276 276 276 277 277
275 276 276 276 275 274 273 272 271 270 270 269 269 268 267 268 269 269 269 269 268 268 268 268 267 268 268 269 268 268 268 268 268 269 270 270 269 268 268 267 266 266 266 266 265 263 262 261 260 260 260 260 260 260 260 261 261 261 261 261 262 263 263 263 264 264 265 266 267 268 269 270 270 270 271 272 273 274 275 275 276 276 277 277 278
275 275 275 275 274 273 272 271 271 270 269 268 268 267 267 267 267 267 268 268 269 268 268 268 267 267 268 268 267 267 267 267 268 269 269 269 268 267 266 266 266 266 266 265 264 263 262 261 261 261 260 260 260 260 260 261 261 261 261 262 262 263 263 264 264 264 265 266 267 267 268 268 269 269 269 270 271 272 273 274 275 276 276 277 278
274 274 274 273 273 272 271 271 270 269 268 267 267 267 267 267 266 265 265 266 267 268 269 269 268 267 266 267 267 266 266 266 267 268 268 267 266 266 266 266 266 266 266 264 263 262 261 261 260 260 260 260 260 260 260 260 261 261 261 262 262 263 263 264 264 265 266 266 266 267 267 267 267 268 268 269 270 271 272 273 274 275 276 277 277
273 272 272 271 271 270 269 269 268 268 267 267 267 266 266 266 265 265 264 263 263 265 267 269 269 267 266 266 265 265 265 265 266 267 267 265 265 265 265 265 265 265 265 264 262 261 261 260 260 260 260 260 260 260 260 260 261 261 262 262 263 263 264 264 265 265 266 266 266 266 266 267 267 267 268 268 269 270 271 272 273 274 275 276 277
272 271 271 271 270 269 268 267 267 266 266 266 266 265 265 265 265 264 263 263 262 263 264 266 267 268 268 267 265 265 265 265 265 266 266 265 264 264 265 264 264 264 264 264 262 261 261 261 261 261 261 260 260 260 260 261 261 262 262 262 263 264 264 265 265 266 266 266 266 266 266 266 266 267 267 268 269 270 271 272 272 273 274 275 276
271 270 270 269 268 267 267 266 266 265 265 265 265 265 265 264 264 262 262 262 262 262 263 264 265 266 267 267 266 264 265 265 265 265 265 265 264 264 264 264 264 263 263 263 262 262 262 263 263 262 262 261 261 261 261 261 261 262 262 262 263 264 265 265 266 266 266 266 266 266 266 266 266 266 267 268 268 269 270 271 272 272 273 274 275
269 269 268 268 267 266 266 265 265 264 264 264 264 264 264 263 263 262 262 262 262 262 263 263 264 265 266 266 265 264 264 264 264 264 265 265 264 264 264 264 264 263 263 262 262 262 262 263 263 263 262 262 262 261 261 261 261 261 262 262 263 264 265 265 266 266 266 266 266 266 266 266 266 266 267 267 268 269 269 270 271 271 272 273 274
269 268 268 267 266 265 265 264 264 264 264 264 264 263 263 263 263 263 262 262 261 262 262 263 264 266 266 265 264 263 263 262 263 263 264 264 264 264 264 263 263 263 263 262 262 262 262 263 263 263 263 263 263 262 261 261 261 262 262 262 263 264 265 265 266 266 266 266 266 265 266 265 266 266 266 267 268 268 269 269 270 270 271 272 273
268 267 267 266 265 264 263 263 263 263 263 263 263 262 262 262 263 263 262 261 261 262 262 263 265 266 265 264 263 263 262 262 262 263 263 264 263 263 263 263 263 263 262 262 262 262 262 262 263 263 263 263 263 262 262 262 262 262 262 262 263 264 265 265 266 266 266 266 266 265 265 265 266 266 266 267 267 268 268 269 269 270 271 271 272
267 266 266 265 264 263 262 262 262 262 262 262 262 262 262 262 262 261 261 261 261 261 261 263 265 265 265 264 263 262 262 263 262 263 263 263 263 263 264 263 263 262 262 262 262 261 262 262 262 263 263 263 263 263 263 262 262 262 262 262 263 264 264 265 266 266 266 266 265 265 265 265 265 266 266 266 267 267 268 268 268 269 270 270 271
265 265 264 264 263 263 262 262 262 262 262 262 262 262 262 261 261 261 261 261 261 261 261 263 264 265 264 263 262 262 262 263 263 263 263 263 263 264 264 263 263 263 262 262 262 262 262 262 262 263 263 263 263 263 262 262 262 262 262 262 262 263 264 265 265 266 266 266 265 265 265 265 265 265 266 266 266 267 267 268 268 269 269 270 271
264 263 263 263 262 262 262 261 261 261 261 261 261 261 261 261 260 260 260 260 261 261 261 262 263 264 264 263 263 262 262 263 263 263 263 263 263 264 264 263 263 263 262 262 262 262 262 262 262 262 263 263 263 263 262 262 262 262 262 262 262 263 264 265 265 266 266 265 265 265 265 265 265 265 265 266 266 266 267 267 268 268 269 270 270
262 262 262 262 261 261 261 261 261 261 261 260 260 260 260 260 260 260 260 260 261 261 261 262 262 262 263 263 263 263 263 263 263 263 263 263 263 263 263 263 263 263 263 263 262 262 262 262 262 262 263 263 263 263 263 262 262 263 262 262 262 263 263 264 265 265 265 265 265 265 265 266 266 266 265 265 266 266 266 267 268 268 269 270 270
261 261 261 261 261 260 260 260 260 260 260 259 260 260 260 260 260 260 260 260 260 261 261 262 262 262 262 262 263 263 263 263 263 263 263 263 263 263 263 263 262 262 262 262 262 262 262 262 262 262 262 263 263 263 263 263 263 262 263 262 262 263 263 264 264 265 265 265 265 265 266 266 266 266 266 265 266 266 266 267 267 268 269 269 270
261 260 260 260 260 260 260 260 259 259 259 259 259 259 260 260 260 260 260 260 260 260 261 262 262 262 262 262 262 262 262 262 262 262 262 262 262 262 262 262 262 262 262 262 262 262 262 262 262 262 262 262 263 263 263 263 263 263 263 262 262 262 263 263 264 264 265 265 265 265 266 266 266 266 266 266 266 267 267 267 267 268 268 268 269
260 259 259 259 259 259 259 259 259 258 258 258 259 259 259 259 259 259 260 260 260 260 261 261 261 262 262 262 262 262 262 262 262 262 262 262 262 262 262 262 262 262 262 262 262 262 262 261 261 262 262 262 262 262 262 263 263 263 263 263 262 262 262 263 263 264 265 265 265 265 266 266 267 267 267 267 267 267 267 267 267 267 268 268 268
259 259 259 259 259 259 259 259 258 258 258 258 258 258 258 258 259 259 259 260 260 260 260 261 261 261 261 261 261 261 261 261 261 261 261 261 262 261 261 261 261 261 261 262 262 262 261 261 261 261 262 262 262 262 262 262 262 262 263 263 263 263 263 263 263 264 265 265 265 265 266 266 267 267 267 267 267 267 267 267 267 267 268 268 268
259 259 259 259 259 259 259 258 258 258 257 257 257 257 258 258 258 259 259 259 260 260 260 260 261 261 261 261 261 261 261 261 261 261 261 261 261 261 261 261 261 261 261 262 262 262 262 262 262 262 262 262 262 262 262 262 262 262 262 263 263 263 263 263 263 264 265 265 265 265 266 266 267 267 267 267 267 267 267 267 267 267 267 267 267
259 259 259 259 258 258 258 258 257 257 257 257 257 257 258 258 259 259 259 259 260 260 260 260 260 260 260 260 260 260 261 261 261 261 261 261 261 261 261 261 261 261 261 261 261 261 262 262 262 262 262 262 262 262 262 262 262 262 262 262 263 263 263 263 264 264 265 265 265 265 266 266 267 267 267 267 267 267 267 267 267 267 267 267 267
Wind_Speed
16 15 13 12 11 11 10 10 10 10 10 10 11 13 14 15 17 18 18 19 19 19 19 20 21 21 21 22 22 23 24 24 25 26 26 26 26 27 27 28 28 29 30 30 30 29 29 29 28 27 26 24 22 20 20 19 19 20 20 20 21 18 17 17 17 22 25 21 22 29 30 33 36 34 32 33 33 33 34 34 34 33 32 30 29
16 13 12 10 8 8 8 7 7 6 6 8 10 12 14 15 16 17 18 18 19 19 19 20 20 21 21 22 22 23 24 24 25 25 25 26 26 26 26 27 27 28 29 29 30 29 29 30 30 30 28 26 23 21 21 20 19 20 19 18 20 19 16 18 19 21 26 25 21 24 25 26 33 35 30 30 33 32 34 37 37 36 36 34 33
15 13 10 9 7 6 5 3 2 3 5 8 11 13 14 15 15 17 18 18 19 19 20 21 21 22 22 22 23 23 24 24 24 24 24 25 25 25 26 26 26 27 27 28 29 29 28 28 28 28 28 28 27 23 22 21 19 20 20 19 20 21 19 19 21 22 26 29 25 23 22 20 25 32 31 33 36 34 34 37 36 36 37 35 34
15 13 11 9 7 5 3 2 0 3 7 9 11 12 13 14 15 16 17 18 19 19 20 21 21 22 22 22 23 23 23 23 23 23 23 23 24 24 25 25 25 25 26 26 26 26 26 25 25 26 27 27 26 24 22 22 21 21 22 21 20 22 22 20 22 23 26 30 28 24 23 22 23 26 28 31 36 36 36 37 35 34 35 35 34
16 14 12 10 7 6 5 3 1 4 6 8 10 11 12 14 15 16 17 18 19 19 20 21 21 21 22 22 22 22 22 22 22 22 22 22 23 23 24 24 25 25 25 25 25 24 24 25 25 24 24 24 24 23 22 22 23 22 23 23 22 22 23 22 22 24 25 29 31 28 25 24 24 24 23 24 30 33 34 35 34 32 32 33 33
17 15 13 11 9 8 6 3 2 4 6 7 9 11 12 14 15 16 17 17 18 19 19 20 20 20 21 21 21 21 21 21 21 21 22 22 22 23 24 24 24 24 24 24 23 23 23 23 23 22 20 21 21 21 22 22 22 22 22 22 22 22 23 23 22 23 25 28 30 30 28 25 24 23 20 19 22 27 29 30 30 30 32 33 33
18 16 14 12 11 9 7 5 4 5 6 8 9 11 13 14 15 16 17 17 18 18 19 19 20 20 20 20 20 20 20 20 20 20 21 22 22 23 24 23 23 23 22 20 19 18 18 18 19 19 18 19 20 20 21 22 21 22 22 22 22 22 23 24 23 23 25 27 29 30 29 27 26 25 22 20 22 25 26 26 27 28 29 29 29
20 17 15 14 12 10 8 6 6 6 7 8 10 12 13 14 15 16 16 17 17 18 19 19 19 19 19 19 19 20 20 19 20 20 21 22 22 22 23 22 22 21 18 17 16 15 15 15 16 17 17 18 20 21 22 23 23 23 22 21 22 22 23 23 23 24 25 27 28 28 28 27 25 24 23 20 20 22 21 21 24 26 25 24 27
20 19 17 16 14 12 9 8 7 7 8 9 11 12 13 14 15 16 16 17 18 18 18 18 19 19 19 19 19 19 19 19 19 20 20 20 20 21 20 19 18 18 16 16 16 15 14 15 15 16 19 20 22 23 23 23 23 24 23 22 22 23 23 23 23 23 24 25 26 26 26 25 23 22 22 20 19 21 21 20 23 27 27 26 28
21 20 18 17 15 13 11 10 9 8 8 10 11 13 14 15 15 16 17 17 18 18 18 18 18 19 19 20 20 20 20 19 19 18 17 17 18 18 17 16 15 16 17 17 17 16 15 16 17 19 21 22 23 23 23 23 22 23 23 23 23 24 24 24 24 24 24 25 26 25 25 25 24 22 23 23 22 24 24 22 23 26 26 25 25
21 20 19 18 16 14 13 11 10 9 9 10 12 13 14 15 16 17 17 17 18 18 18 18 18 19 20 20 20 20 20 19 19 18 16 15 15 16 16 16 16 16 16 17 18 17 16 17 18 18 19 20 20 21 21 22 22 22 22 22 22 22 23 24 24 24 24 25 26 26 24 26 26 24 24 24 23 23 24 24 23 25 25 21 21
21 20 19 19 17 16 14 12 11 10 9 10 12 13 14 15 16 17 17 18 18 18 19 19 19 19 20 20 20 20 19 19 18 18 17 15 14 14 15 16 16 16 16 17 17 17 17 17 16 16 16 17 19 20 21 22 22 22 22 21 21 20 21 22 23 24 24 26 28 27 25 27 28 25 23 23 23 23 24 25 25 26 26 24 23
21 20 20 20 18 17 15 13 11 10 9 10 12 13 14 16 17 17 18 18 18 18 19 19 19 19 20 20 20 20 19 19 18 18 17 15 14 14 15 16 16 16 16 16 16 15 16 17 17 17 17 18 19 21 21 22 22 22 21 21 20 20 20 22 23 25 26 27 29 28 26 26 27 25 22 22 25 26 26 26 27 27 28 27 27
22 21 21 20 19 18 16 13 11 9 9 10 12 13 15 16 17 18 18 18 18 19 19 19 19 19 19 20 21 20 19 19 19 18 16 15 14 14 15 16 16 15 15 15 16 16 16 17 18 20 19 18 19 21 22 23 23 22 22 23 23 24 26 27 27 28 28 28 30 31 28 27 28 28 25 24 25 27 26 26 26 26 28 30 32
23 22 22 21 20 18 15 12 10 9 10 11 13 14 15 16 17 18 18 18 18 19 19 19 19 19 19 20 21 20 19 19 19 18 16 15 15 15 15 15 15 15 14 15 16 16 16 17 19 20 20 22 24 24 24 24 23 25 28 29 31 33 33 32 32 33 33 31 31 31 30 29 29 28 27 25 26 28 29 29 29 28 29 31 31
24 24 23 22 20 18 14 12 10 10 11 13 14 15 16 16 17 18 18 18 18 18 19 19 19 19 19 19 21 21 19 18 19 18 16 15 15 15 16 15 15 15 16 17 17 16 16 17 19 20 22 26 29 28 26 26 26 29 32 33 34 35 35 35 34 33 33 32 31 31 31 31 31 31 30 29 29 30 30 30 29 27 27 26 26
25 25 24 23 20 17 14 12 11 11 12 14 15 15 16 16 17 18 18 19 19 19 20 20 19 19 19 19 21 21 20 19 19 18 16 14 15 16 16 16 16 17 19 19 19 18 19 21 23 25 25 27 29 29 28 28 29 32 33 33 34 33 34 36 37 34 33 34 35 35 35 34 34 33 32 31 31 31 31 29 26 25 25 21 19
27 26 25 23 19 16 14 12 12 12 13 14 15 16 16 16 17 17 18 19 20 19 20 20 19 19 19 19 20 21 22 20 18 18 16 14 15 16 17 18 20 22 24 25 24 25 27 29 29 29 28 28 29 30 30 30 31 33 33 34 35 35 36 39 40 38 37 37 36 36 37 36 35 34 32 31 31 30 30 29 27 27 26 22 19
28 27 25 21 18 16 14 13 13 13 14 15 15 16 16 16 17 17 18 19 20 20 20 21 21 19 19 18 18 20 22 20 18 17 16 14 15 17 17 19 22 24 27 29 30 30 30 30 30 28 28 29 31 32 31 31 33 34 33 33 34 35 37 40 40 38 37 36 36 37 37 37 36 34 33 32 31 30 30 30 28 28 28 27 25
28 26 23 20 18 17 15 14 14 14 15 16 16 15 16 16 16 17 17 19 20 20 20 20 21 20 19 18 17 18 20 20 18 17 16 15 16 17 17 20 23 27 29 30 29 28 29 32 32 29 28 30 31 32 32 33 35 36 34 32 31 33 36 37 35 34 34 34 34 34 33 31 30 30 29 28 26 26 27 27 28 28 28 29 28
27 25 23 21 20 18 16 15 14 15 15 16 15 15 16 16 17 17 18 19 19 20 20 20 21 21 19 18 17 16 17 19 18 17 17 15 16 16 18 21 24 28 29 27 27 28 30 33 33 30 29 30 31 32 34 35 36 36 32 29 29 33 35 34 31 28 27 27 25 24 23 23 24 24 24 24 23 24 25 27 28 29 29 29 28
27 25 24 22 20 18 16 15 15 15 16 16 16 16 16 16 17 17 17 19 19 20 20 20 21 22 20 18 16 15 16 16 17 18 17 15 16 16 18 21 23 24 26 27 29 30 31 32 32 31 30 31 32 34 35 35 35 33 29 29 32 35 33 30 26 23 21 20 20 20 21 21 22 22 23 24 25 25 26 27 28 29 29 30 29
27 26 24 22 20 18 16 15 15 15 16 16 17 17 16 16 16 16 17 19 20 20 21 20 21 22 22 19 16 15 15 15 17 19 17 16 17 18 19 20 22 23 25 28 29 29 29 30 32 32 32 33 33 34 34 34 33 31 30 31 33 33 30 28 25 23 22 22 22 23 23 23 24 25 25 26 27 26 27 29 29 29 29 30 32
27 26 24 22 20 18 17 16 16 16 16 17 18 17 16 16 16 16 17 18 19 20 21 20 20 22 22 20 18 16 16 18 19 18 17 16 18 19 20 21 22 22 24 26 27 27 29 31 32 33 33 32 32 31 30 30 29 29 30 30 29 28 28 28 26 23 22 21 21 23 24 25 26 27 28 29 29 29 30 30 30 30 31 31 33
28 27 25 23 21 19 18 17 17 17 17 18 18 17 16 17 16 16 17 18 19 20 20 19 19 20 19 20 19 17 17 19 19 18 17 18 19 20 21 21 21 22 24 25 26 28 29 30 31 31 30 28 27 26 25 24 24 26 27 26 25 24 23 22 22 21 20 21 22 23 24 25 26 27 30 31 30 30 31 30 30 32 32 32 34
29 27 25 24 22 20 19 18 17 18 18 18 18 17 16 17 17 17 17 18 18 19 19 19 18 17 17 17 17 17 18 18 18 18 19 19 21 22 23 21 21 22 23 25 25 26 28 29 28 27 26 24 22 21 20 21 21 22 22 21 20 19 19 19 20 21 21 22 22 23 23 24 24 26 29 29 28 30 31 30 30 32 32 30 30
29 28 26 24 22 21 20 19 18 18 18 18 18 17 17 17 18 18 18 18 18 18 18 18 17 16 15 15 16 17 18 17 17 18 19 20 22 23 23 21 21 22 23 23 23 26 29 29 26 24 23 21 19 18 17 17 17 17 18 19 19 19 20 20 21 21 21 22 23 24 25 25 25 26 27 27 27 29 31 29 26 25 27 27 26
29 28 26 24 23 22 20 19 19 18 18 18 18 17 17 18 18 19 17 17 18 18 18 17 16 14 14 15 17 19 18 15 15 17 19 20 21 22 22 21 21 22 23 22 22 26 28 26 24 23 22 21 21 19 18 17 18 18 19 20 21 22 23 22 20 19 19 21 23 24 25 25 26 27 28 28 28 29 31 30 27 26 28 28 24
29 27 25 24 23 22 20 19 19 18 18 18 18 18 17 18 19 19 18 17 18 17 17 17 15 15 15 17 19 19 17 15 15 17 17 18 19 20 20 20 20 20 19 19 22 25 24 22 23 23 21 19 20 21 21 22 23 25 26 24 23 24 24 21 19 19 20 22 23 25 26 25 26 27 27 26 28 29 29 29 29 30 30 26 22
29 27 26 25 24 22 21 20 20 19 19 19 19 18 17 17 18 20 18 17 16 15 16 18 18 18 20 20 18 16 16 17 16 16 16 17 17 18 18 17 18 18 16 17 21 22 21 21 21 21 18 17 17 18 20 22 24 28 32 32 29 26 22 20 20 21 22 23 24 25 26 25 25 26 25 23 26 28 29 30 31 29 26 22 21
29 28 28 26 24 22 21 20 20 19 19 19 19 19 18 17 17 18 18 17 15 14 15 17 18 19 21 21 18 16 16 16 15 15 16 16 16 16 16 15 16 16 14 16 20 20 19 20 21 20 19 19 19 18 20 22 23 26 30 33 33 28 23 21 23 23 23 24 25 25 24 24 24 25 24 23 23 25 27 29 28 25 23 23 23
30 29 28 25 23 22 21 20 20 20 19 19 18 18 18 17 17 15 15 15 15 14 13 15 16 16 16 16 16 15 14 13 14 14 15 14 14 14 14 15 16 14 12 14 18 19 18 19 20 20 21 21 22 22 23 23 24 26 27 28 29 29 26 25 26 25 24 24 24 24 23 24 24 25 25 25 24 23 24 24 24 22 22 23 23
29 27 25 24 23 22 22 21 21 20 19 19 18 18 18 18 16 15 13 14 14 14 12 12 12 12 12 12 13 13 13 12 13 13 13 12 12 12 13 16 16 13 12 15 18 19 18 19 19 20 20 21 22 23 24 23 24 26 26 25 27 29 30 29 28 27 25 23 23 23 23 24 25 25 25 25 25 24 24 24 24 24 23 23 23
28 26 24 23 22 22 22 21 21 20 19 18 18 18 18 17 16 15 14 14 14 13 11 11 12 13 14 15 15 13 12 11 11 12 11 10 9 11 15 16 13 11 12 14 16 17 19 19 20 21 21 21 21 22 24 24 25 25 26 27 28 29 30 30 30 28 25 23 22 23 23 24 24 24 24 25 24 24 24 24 24 23 23 23 24
27 25 24 22 21 21 21 21 20 19 18 18 18 18 18 17 16 16 15 14 15 15 13 12 13 14 14 14 12 11 10 10 11 10 8 8 9 12 15 15 13 12 13 14 15 17 18 18 20 21 21 22 22 22 23 25 25 25 26 28 29 30 30 30 29 27 24 23 23 23 24 24 24 23 23 24 24 24 24 23 23 24 24 23 23
26 25 24 22 21 21 21 20 19 19 19 18 18 18 17 17 17 17 16 15 16 17 16 14 13 13 14 12 10 9 9 9 9 8 7 8 10 13 13 14 14 15 15 16 16 17 17 17 19 20 21 21 22 22 23 24 25 26 26 27 27 29 29 28 26 24 24 25 24 24 24 25 24 24 23 23 24 23 23 24 24 24 24 24 24
25 25 24 22 21 21 20 19 19 19 18 18 18 18 18 18 18 17 17 17 17 18 18 17 15 14 14 12 9 10 10 9 7 7 8 9 10 11 11 12 13 14 16 16 17 18 19 19 19 20 21 22 22 23 23 24 24 25 26 26 26 26 26 25 24 24 26 27 25 25 25 25 24 24 23 23 23 23 23 24 24 24 25 25 24
24 23 22 21 20 19 19 18 18 18 18 18 18 18 18 19 18 18 18 18 18 19 19 19 18 16 14 12 10 11 11 10 9 9 9 8 8 9 10 10 11 13 15 16 17 18 20 20 20 21 21 22 22 22 23 23 24 25 26 26 26 25 24 24 24 26 27 27 26 25 25 24 24 24 23 22 23 23 24 24 24 24 24 24 21
21 21 20 19 18 18 19 18 19 19 19 19 19 19 19 19 19 19 20 19 19 20 20 20 20 18 16 13 12 11 11 11 11 12 11 9 8 9 9 10 10 12 14 15 16 17 19 20 20 21 21 21 22 22 22 22 23 24 24 25 25 25 25 27 28 28 28 29 28 26 24 25 26 25 23 22 22 22 24 24 24 24 23 22 21
21 20 20 19 19 19 19 19 19 20 20 20 19 19 20 21 20 20 20 19 20 21 21 21 21 19 15 13 12 11 11 13 14 15 15 13 11 10 9 9 10 12 13 15 15 16 18 19 20 20 21 21 22 22 22 22 22 23 24 24 24 23 24 26 28 28 28 29 30 28 28 30 29 26 23 22 22 22 23 24 24 24 22 21 21
20 20 19 19 19 20 20 20 21 21 20 19 19 19 20 21 21 20 20 20 21 21 21 22 22 19 15 14 12 11 13 17 18 18 16 14 13 13 11 10 10 11 12 14 15 16 17 18 19 19 20 21 21 22 21 21 22 22 23 24 24 23 23 25 27 28 29 31 32 31 32 33 30 25 23 23 23 24 24 23 23 23 22 20 20
19 19 19 19 19 20 21 21 21 20 19 19 19 20 20 21 20 20 20 21 21 21 22 22 21 18 16 14 12 12 15 19 19 18 16 14 14 14 13 11 11 12 12 14 15 16 17 18 18 19 20 20 21 21 21 21 21 21 23 24 24 23 23 25 26 27 29 33 34 33 33 33 30 26 25 25 24 24 24 24 24 24 22 21 20
19 19 19 19 20 20 21 21 20 20 20 20 20 20 21 21 21 21 21 21 21 22 22 22 21 19 17 15 13 14 16 18 17 16 16 15 15 15 14 13 13 13 13 13 14 15 17 18 18 19 19 19 19 20 20 20 20 20 21 24 24 23 23 24 26 27 31 35 36 36 35 34 32 30 28 26 23 22 24 25 25 25 24 23 22
18 18 18 19 19 20 20 20 20 20 20 20 20 20 20 21 21 21 21 22 22 22 22 22 21 20 18 16 15 16 17 16 16 16 16 16 16 16 15 15 15 15 15 15 14 15 16 18 19 19 19 18 18 19 19 18 18 18 19 21 23 23 22 23 25 28 31 34 36 37 36 35 33 31 29 26 23 23 24 25 24 24 23 23 21
18 18 19 19 20 20 20 20 20 20 20 20 20 21 21 21 21 21 22 22 22 22 22 22 21 20 19 18 17 17 17 16 16 16 16 17 17 17 16 16 17 17 17 17 16 16 16 17 18 20 20 20 19 19 18 18 17 17 17 18 19 21 21 22 24 27 29 32 35 36 35 33 32 30 28 26 24 23 23 22 22 21 21 21 20
17 18 19 19 19 20 20 19 19 19 19 20 21 21 21 22 22 22 22 22 22 22 22 21 20 20 20 19 18 18 17 17 17 17 17 17 17 17 17 17 18 19 19 19 18 18 18 18 18 19 20 21 20 20 20 19 18 18 17 17 17 18 19 21 24 26 27 30 33 34 32 31 30 28 26 25 24 23 22 21 21 20 19 18 18
16 16 17 18 18 18 18 18 19 19 19 20 20 21 22 22 22 21 21 21 21 21 21 20 20 20 20 20 19 19 18 17 18 18 18 18 18 18 18 18 19 20 20 20 20 19 19 19 19 19 20 20 21 21 21 20 20 19 19 19 18 17 17 19 23 25 25 28 31 32 30 28 28 27 25 23 22 22 21 21 20 18 17 17 16
13 14 14 15 16 17 17 18 19 19 20 20 20 21 21 21 21 21 21 20 20 20 20 20 20 20 20 20 19 19 18 18 19 19 19 19 19 18 18 19 20 21 22 22 21 21 20 20 20 20 20 20 21 21 21 21 21 20 20 20 20 18 16 17 21 24 25 27 29 29 27 26 26 25 23 22 21 20 19 18 18 17 16 15 15
14 15 16 16 17 17 18 19 19 20 20 19 20 20 20 20 20 21 20 20 20 19 19 20 20 19 20 20 19 19 19 19 20 20 20 20 20 19 19 19 20 21 22 23 22 21 21 21 20 20 20 20 20 21 21 21 21 21 20 20 20 19 16 16 18 21 23 26 28 27 26 25 24 23 22 21 20 18 17 16 16 16 15 15 14
14 16 17 18 19 19 19 19 19 20 20 19 19 20 20 20 20 20 20 20 20 19 19 19 19 19 20 20 20 20 20 20 20 21 21 21 20 19 19 19 20 21 21 22 22 22 21 21 20 20 20 20 20 21 21 21 21 21 21 20 20 18 16 14 15 17 21 24 26 25 24 23 22 21 21 20 18 18 17 16 15 15 14 14 14
9 11 12 14 16 17 17 18 19 19 19 19 19 20 20 20 20 20 19 19 20 19 19 19 19 19 20 20 20 20 20 20 21 21 21 20 19 19 19 19 20 21 21 22 22 22 22 22 21 21 21 20 20 20 21 21 21 21 20 20 19 18 15 13 13 15 19 22 24 22 21 20 20 19 18 18 17 17 17 16 15 14 14 13 12
Wind_Direction
137 133 129 123 116 109 100 89 77 64 54 44 35 33 29 23 20 16 10 6 2 0 359 359 359 359 358 357 356 356 355 355 354 353 352 350 349 348 346 344 342 341 339 338 337 336 333 331 329 328 328 324 318 315 312 310 308 303 300 299 294 291 288 282 279 286 289 286 285 289 294 297 297 295 295 296 297 297 297 296 296 297 296 296 295
147 145 141 136 129 117 105 89 76 58 44 36 28 25 20 15 13 9 4 2 359 358 357 358 358 357 356 356 355 355 354 354 354 352 351 349 347 346 345 343 341 339 337 336 334 333 331 328 327 326 326 322 317 315 312 309 307 301 296 294 291 288 287 285 284 286 290 292 291 290 292 295 295 295 297 296 295 296 294 293 294 294 294 294 294
158 158 156 153 143 125 113 103 87 39 27 23 18 15 11 7 4 1 358 357 355 354 355 355 355 354 354 353 353 353 353 353 353 351 349 347 346 345 343 342 340 338 336 334 333 332 329 326 324 322 321 318 315 314 312 309 307 302 298 294 290 288 285 281 280 282 287 291 292 290 292 291 289 291 295 296 296 295 292 292 293 292 292 292 291
169 171 170 166 158 153 169 186 120 14 15 12 7 4 1 357 355 353 352 351 350 350 351 350 351 350 350 351 351 351 351 352 351 350 348 347 344 343 341 340 338 337 334 332 330 328 326 322 320 320 318 314 312 311 310 308 307 303 299 297 292 289 287 281 277 277 282 287 288 288 290 289 285 287 292 294 296 296 295 294 294 293 292 291 290
179 181 181 181 184 195 208 214 306 357 0 358 353 352 350 348 346 345 345 345 345 346 347 347 347 347 347 348 348 348 350 350 349 348 347 346 343 341 340 338 337 335 333 331 329 326 324 321 319 320 317 312 310 309 308 308 306 302 299 297 295 292 289 285 281 279 278 281 285 287 287 286 284 284 287 292 295 296 296 295 296 295 293 292 291
186 188 193 197 204 210 215 229 289 330 339 341 340 341 341 340 339 340 340 341 342 342 343 343 344 344 345 345 345 347 349 350 348 348 346 344 342 340 339 338 336 334 332 331 329 326 323 321 318 318 315 309 308 309 308 307 305 302 300 299 298 295 293 291 288 285 282 281 285 289 289 289 288 286 286 289 293 294 295 296 297 296 294 293 292
192 197 203 207 212 217 224 245 279 308 321 326 330 332 333 333 334 335 336 337 337 337 339 340 341 342 342 342 343 345 348 350 348 347 345 343 342 341 339 337 334 333 331 327 325 322 318 316 314 313 311 308 306 307 307 307 305 301 301 300 298 296 294 293 292 290 288 286 286 287 289 289 288 286 285 285 284 285 288 293 295 294 293 293 294
200 205 209 211 217 223 231 250 273 294 308 316 322 325 327 328 329 330 331 332 333 335 336 337 338 339 339 340 341 344 349 350 349 348 346 345 343 339 336 334 331 328 324 320 317 314 310 309 307 307 307 305 304 303 304 305 303 301 300 300 298 296 294 293 293 292 290 288 287 287 289 290 289 290 290 287 281 279 281 287 290 292 293 293 293
207 210 213 216 220 226 236 251 267 282 296 309 316 320 322 323 324 325 326 328 330 332 332 333 335 335 336 338 340 345 349 350 350 350 348 344 340 335 331 328 324 319 314 312 311 308 306 306 303 302 302 301 301 299 299 299 299 298 299 301 300 299 297 295 295 295 293 291 289 291 292 292 294 298 299 296 293 291 290 289 287 288 292 292 290
212 214 216 219 222 228 236 247 258 272 289 304 312 315 317 319 321 322 324 326 327 328 329 331 333 334 335 337 340 345 350 350 349 349 347 342 335 328 321 317 314 311 309 308 307 306 305 303 301 300 300 300 300 299 299 298 297 295 297 299 300 299 298 297 296 295 295 292 291 293 293 292 295 300 300 300 301 299 296 293 288 288 292 294 291
214 216 218 219 222 227 233 240 252 265 282 300 308 311 313 316 318 319 321 323 324 326 328 330 333 334 335 337 339 344 348 347 345 343 343 341 333 321 313 310 308 307 305 305 304 305 304 302 301 300 299 300 301 301 300 300 299 298 298 298 298 297 298 297 296 296 294 292 291 292 293 294 296 298 300 302 303 300 298 299 297 294 291 290 291
215 216 216 217 220 224 229 235 246 262 279 296 304 307 311 313 314 315 318 320 322 325 327 329 332 333 334 335 337 342 346 344 341 341 340 338 331 317 309 307 305 303 302 302 302 302 302 301 301 298 297 299 300 299 299 299 299 299 299 299 298 297 296 296 297 298 296 294 292 291 292 293 294 296 298 301 300 300 300 299 297 294 289 284 283
213 213 212 215 218 221 226 233 244 259 278 293 299 304 307 309 310 311 314 318 320 322 324 325 329 331 332 334 335 339 344 340 338 339 337 334 328 316 306 303 300 298 299 299 299 299 300 300 300 298 297 297 296 297 296 296 298 298 298 297 295 293 291 291 292 292 291 291 290 290 291 291 291 293 296 297 296 295 295 293 291 290 289 288 287
209 210 210 212 216 219 224 231 243 259 276 289 295 300 302 305 307 309 312 315 316 318 320 322 327 330 331 332 332 337 341 338 336 337 334 332 327 315 304 299 296 295 297 298 298 297 297 297 297 297 297 295 293 294 295 295 294 293 291 288 285 285 285 286 286 284 284 284 284 284 284 283 284 288 291 289 283 279 279 279 279 278 278 280 282
207 208 209 213 215 218 224 232 244 261 277 287 293 297 299 302 304 306 309 312 313 316 319 321 325 328 331 331 329 333 337 335 332 332 333 331 324 311 303 299 296 295 295 296 296 296 295 295 294 293 292 294 295 293 292 293 291 287 286 284 283 283 283 284 285 284 281 278 275 275 275 275 278 283 286 284 278 276 279 281 281 280 279 279 278
206 208 211 214 215 219 227 237 249 266 278 285 291 294 296 299 301 304 308 310 312 315 317 319 323 326 330 330 327 329 334 333 329 329 331 329 320 311 306 301 296 293 295 298 298 295 292 290 289 287 287 294 299 296 291 292 290 286 284 282 282 281 281 284 285 281 277 275 273 273 274 276 280 284 284 285 284 286 289 290 290 291 289 286 284
208 211 213 215 217 223 231 241 255 268 276 282 287 290 293 296 299 303 307 308 311 314 314 317 321 325 329 330 326 326 329 330 328 326 328 328 321 312 307 302 297 294 297 299 298 295 294 295 295 291 288 291 295 294 293 293 291 287 285 284 284 282 281 284 285 279 276 277 277 278 279 280 283 286 287 286 286 288 290 289 289 290 287 285 286
211 213 215 217 220 228 235 244 256 265 272 278 283 286 290 294 298 302 305 306 309 311 312 315 319 324 327 327 326 324 324 326 327 323 326 331 321 309 305 302 300 300 302 304 303 300 301 304 302 295 289 288 290 293 295 294 291 288 287 285 284 281 282 285 286 283 281 280 279 280 282 282 282 283 284 284 283 284 283 281 281 282 280 278 282
215 216 218 220 224 231 238 245 254 262 269 275 279 284 288 292 296 299 302 304 305 308 311 313 316 321 324 324 325 321 319 322 325 325 331 332 317 308 305 303 302 305 306 305 304 302 302 306 304 297 291 292 294 296 296 294 291 288 286 284 282 281 285 287 287 284 281 279 278 278 279 281 281 281 281 280 278 276 274 274 275 275 274 274 276
218 217 219 222 226 232 238 244 253 260 267 273 278 283 287 290 293 296 298 300 302 306 310 312 314 318 322 322 323 321 319 321 325 331 337 330 313 307 305 302 304 306 305 303 303 303 302 304 304 299 296 296 297 297 296 294 293 291 289 287 283 284 289 290 287 284 282 280 280 279 279 281 281 279 278 276 273 271 269 270 271 271 271 273 273
216 216 219 223 227 232 237 243 252 260 266 273 278 282 285 288 291 294 297 299 301 304 308 310 311 314 318 321 323 322 322 323 327 337 342 328 311 308 307 305 306 306 305 304 303 302 301 302 303 302 301 299 297 295 294 295 297 297 295 293 290 292 296 297 295 293 289 286 286 285 284 284 281 278 275 273 271 270 270 271 271 270 270 271 271
215 216 220 223 227 232 237 244 252 259 267 274 278 281 283 285 289 293 297 299 301 303 306 309 310 312 316 321 323 325 327 328 332 341 343 326 312 311 309 307 308 308 306 305 304 303 303 304 304 303 301 299 298 297 298 301 304 303 303 301 299 301 306 309 308 305 300 297 296 292 288 286 283 280 278 277 277 276 275 275 273 271 269 268 268
214 217 220 224 228 232 238 245 252 259 267 273 276 278 279 282 286 292 295 297 299 301 304 308 310 311 314 319 325 330 333 335 340 345 340 321 314 315 312 309 311 310 307 306 306 307 308 306 306 305 304 304 304 305 306 307 307 306 305 305 305 308 312 314 314 311 307 302 299 294 291 289 287 285 283 282 282 281 279 278 276 273 271 268 266
213 217 221 224 228 232 237 244 252 259 265 269 271 273 277 279 283 288 291 293 296 298 302 306 308 310 314 318 326 336 341 340 341 342 333 318 315 318 315 314 315 313 312 311 310 311 311 309 309 309 309 309 308 308 308 307 306 306 307 309 311 313 313 313 313 312 308 302 297 293 291 289 287 285 285 286 286 284 281 278 276 273 271 269 268
213 218 221 223 227 232 236 242 250 256 260 263 266 270 274 277 280 283 286 289 292 295 299 303 304 307 312 317 325 337 344 340 334 332 329 324 323 322 319 317 318 319 318 316 314 313 312 312 313 313 313 313 313 311 310 308 307 308 310 313 316 315 313 313 312 310 304 299 295 292 289 288 285 285 288 290 288 285 282 280 279 278 275 273 272
215 217 219 223 226 230 235 240 246 251 255 259 263 266 270 273 277 281 283 286 289 291 295 297 300 303 308 316 324 332 337 335 326 324 329 333 332 329 324 320 321 322 321 319 318 317 317 317 318 317 316 317 317 315 312 310 311 313 315 318 320 318 317 316 313 309 304 299 296 293 290 289 287 289 293 293 288 285 285 283 282 282 279 276 273
215 216 218 222 225 229 234 238 242 246 251 255 259 263 266 270 273 277 281 286 287 288 290 292 295 298 303 312 321 322 324 327 321 319 327 332 330 326 323 323 325 325 325 324 322 320 319 319 320 321 322 325 326 323 320 319 319 321 322 324 324 321 319 316 311 305 301 299 299 298 296 295 294 293 295 293 289 288 289 287 281 278 278 277 273
215 217 219 221 225 230 233 236 240 244 248 252 256 259 262 266 271 276 281 284 284 285 286 286 288 293 299 307 312 311 312 315 311 312 319 323 321 319 322 326 328 328 329 328 321 318 321 327 333 338 340 340 337 335 333 330 329 327 326 325 324 323 322 319 313 308 305 305 305 303 301 299 296 294 295 295 292 292 294 290 283 278 278 277 272
215 217 219 221 225 230 232 236 240 242 245 250 254 257 261 265 270 274 278 280 281 284 285 285 289 296 298 301 301 298 297 302 305 306 310 313 314 317 322 325 326 328 331 325 318 323 333 343 348 350 348 342 338 337 335 334 334 334 333 330 327 326 326 324 319 317 316 314 311 308 305 301 296 293 294 296 295 296 296 292 286 282 279 272 263
213 215 218 221 225 228 232 237 240 242 245 249 252 256 260 263 269 275 279 280 284 286 282 282 289 294 293 294 292 284 285 297 304 305 308 311 313 315 319 322 324 328 329 320 319 332 346 348 346 347 344 338 335 333 332 332 331 332 334 334 332 330 328 325 321 319 317 315 311 307 303 300 297 296 295 293 293 295 295 292 287 281 274 265 259
212 214 218 222 225 229 233 237 239 242 246 249 252 256 258 259 264 272 279 281 280 277 269 267 271 277 278 280 280 278 284 296 302 304 307 311 312 315 320 323 326 329 328 321 325 341 350 344 340 342 340 337 334 330 329 329 327 327 329 331 332 331 327 323 322 320 316 314 310 306 303 304 306 307 303 296 291 290 291 291 286 277 267 261 260
214 217 221 224 226 229 233 235 237 240 244 247 252 257 261 262 261 264 271 275 273 270 264 259 263 269 270 269 272 279 287 294 299 303 307 309 312 318 321 319 321 324 323 323 333 346 348 340 337 338 337 335 333 331 330 328 326 325 324 323 325 327 326 323 322 318 314 311 310 309 310 312 313 313 310 306 301 296 294 293 289 282 276 272 269
219 222 224 226 227 229 230 233 236 239 243 247 252 255 260 265 267 267 267 267 269 272 266 254 254 261 258 255 264 278 289 294 298 302 305 307 315 319 315 313 318 323 325 331 341 347 344 337 335 334 333 331 329 329 329 327 325 325 323 319 319 323 325 326 326 321 315 312 313 314 315 315 315 315 314 313 310 306 303 301 298 295 292 289 287
222 226 229 229 230 230 231 234 238 240 243 247 250 253 257 262 268 271 269 266 269 272 263 243 237 240 244 249 257 270 284 295 299 300 303 311 319 314 308 311 320 330 337 343 346 344 339 337 335 333 331 329 328 328 328 327 326 325 324 323 323 323 325 328 329 325 320 317 318 318 316 315 315 314 313 312 311 308 306 304 304 302 298 296 295
223 227 230 231 232 233 234 236 238 241 243 245 249 254 258 259 262 265 266 267 268 270 264 255 250 251 258 262 262 263 276 292 297 298 305 313 311 304 304 312 323 334 344 348 346 340 336 334 331 330 329 328 328 329 328 327 328 327 326 326 326 326 327 328 328 328 325 323 321 319 318 317 315 313 311 309 308 306 305 304 306 305 302 301 299
223 226 229 231 232 233 236 238 240 242 245 248 250 254 256 258 258 260 261 262 264 267 268 268 268 271 276 277 268 257 262 278 291 295 296 300 303 304 310 320 329 336 343 345 341 336 333 330 329 330 329 328 329 330 329 329 329 329 329 328 326 325 326 327 327 328 327 325 322 320 319 318 315 313 312 309 307 306 305 304 305 305 304 304 303
224 228 231 233 234 235 237 239 241 243 246 249 251 253 255 257 258 258 258 259 262 267 272 275 276 275 274 274 271 263 260 263 272 274 275 287 301 307 313 323 330 333 336 338 337 334 332 333 334 334 333 333 333 332 331 331 332 332 332 330 327 325 324 323 325 328 328 326 324 322 320 317 315 313 312 310 309 308 307 306 307 307 307 309 307
227 231 234 236 237 239 240 241 242 245 247 249 250 253 255 257 257 257 259 261 264 268 272 276 278 276 273 274 278 278 274 271 267 265 269 286 303 307 310 318 325 328 329 333 335 332 332 335 338 338 337 337 336 335 333 333 333 334 334 332 330 328 326 325 327 329 329 328 327 324 321 318 316 315 313 311 308 309 310 310 310 309 308 310 311
230 233 236 238 239 241 243 243 244 246 248 249 250 252 253 255 256 257 260 263 266 267 270 273 275 275 277 278 278 278 282 285 285 286 292 300 305 304 306 311 317 322 325 329 332 331 331 334 337 338 338 339 339 338 336 334 334 335 335 333 330 328 329 331 330 330 330 330 329 327 324 322 320 317 315 312 309 309 312 313 313 310 308 308 311
233 234 235 237 238 240 242 244 244 245 246 248 250 251 251 253 255 258 261 264 265 267 270 272 273 276 280 279 274 274 283 289 289 290 295 300 301 301 304 308 313 319 322 325 328 329 329 330 333 336 339 342 342 341 339 336 336 337 336 333 329 326 327 330 330 330 331 332 330 328 326 326 324 320 316 315 313 312 314 314 313 311 310 309 312
238 237 237 238 239 240 242 242 243 246 248 249 251 252 252 254 257 259 261 263 265 267 270 272 274 278 280 276 270 270 278 281 281 283 288 293 297 299 303 308 313 315 318 321 325 325 325 328 331 335 339 343 343 342 340 339 339 338 336 334 330 326 326 329 330 331 333 334 333 331 330 330 327 322 317 317 318 318 317 316 315 314 314 314 315
239 239 239 240 239 239 240 242 245 248 250 252 254 255 256 258 259 260 261 263 265 268 271 273 276 278 277 273 268 264 266 269 272 277 283 288 291 296 302 308 311 312 315 318 321 322 323 325 329 332 337 341 342 341 340 339 339 338 335 332 329 325 325 329 331 333 335 336 334 332 331 331 329 325 322 321 320 321 322 322 323 324 323 322 323
243 243 244 245 244 244 245 247 249 251 251 253 256 258 259 260 260 261 262 264 265 267 269 273 277 278 276 271 266 262 261 264 269 276 282 286 289 294 300 304 307 309 312 315 318 319 320 321 324 328 332 336 338 338 337 337 337 335 333 331 327 323 323 328 332 334 336 336 335 334 333 332 332 331 329 325 322 323 327 331 333 335 334 333 332
246 247 248 248 249 249 250 251 253 254 256 258 259 260 260 261 262 262 263 263 265 267 269 272 276 278 276 272 268 265 265 267 271 276 280 284 288 293 297 301 304 305 307 310 314 315 315 317 319 322 325 330 333 334 334 334 333 332 330 329 325 321 321 327 331 334 335 335 335 335 335 333 333 334 334 331 328 329 333 337 340 342 342 341 339
249 249 250 251 251 252 253 255 257 258 259 260 260 261 262 262 262 262 263 263 266 269 271 273 275 276 275 273 270 269 269 271 274 277 280 284 288 292 295 298 300 301 303 307 310 310 311 313 314 316 319 323 327 329 330 331 330 328 327 326 324 320 319 323 328 331 333 334 335 336 335 334 334 336 336 337 337 337 337 340 344 348 351 353 352
249 250 251 251 252 254 257 259 262 262 261 261 262 263 264 264 264 263 264 265 267 270 272 273 274 274 274 274 272 271 272 274 276 279 282 284 287 291 294 295 297 298 300 303 305 306 308 309 310 312 315 317 320 323 325 326 328 327 325 324 323 320 318 320 325 329 331 332 335 337 337 335 335 337 338 341 344 345 345 346 350 355 0 5 7
248 250 252 254 256 259 262 265 266 266 265 264 264 265 266 267 267 267 266 267 269 270 272 273 273 272 273 274 273 274 275 277 278 280 283 284 287 290 292 294 295 296 298 300 302 303 305 306 307 308 310 312 315 317 319 321 324 325 324 325 326 324 320 320 324 328 330 331 333 337 338 337 337 339 342 344 348 350 352 354 356 360 5 10 15
245 247 251 257 261 265 268 269 268 267 267 267 267 268 268 268 269 269 269 270 270 270 271 272 272 273 273 274 275 276 278 278 280 282 283 285 288 291 292 293 294 296 297 298 299 301 303 304 305 307 308 309 311 313 314 317 319 320 322 324 325 324 324 323 324 327 330 331 333 337 340 340 339 341 344 345 348 352 355 358 0 3 7 11 14
252 253 257 263 268 271 273 272 270 269 269 270 269 269 269 269 270 271 271 272 272 272 273 273 273 274 274 275 277 278 279 279 281 283 285 286 289 292 293 294 295 295 296 297 299 301 303 304 305 306 307 308 309 310 311 313 315 316 319 322 323 323 326 328 327 328 331 331 332 335 339 341 342 344 346 347 348 351 354 359 2 3 6 9 10
264 264 266 268 270 272 273 273 272 272 272 272 271 271 272 273 272 273 274 274 275 275 276 276 276 277 278 279 279 280 280 282 283 285 286 289 291 294 295 295 295 296 297 298 300 302 303 305 306 307 307 308 309 309 309 311 312 314 316 319 321 324 328 330 331 334 333 330 330 334 338 339 342 346 348 351 354 356 357 360 2 3 5 9 11
279 279 276 273 272 272 272 271 272 274 274 274 274 274 275 275 276 277 278 278 278 278 279 280 280 280 280 281 281 282 282 284 285 286 288 291 294 297 297 297 296 297 298 299 301 303 304 305 306 308 309 310 310 310 309 310 311 312 313 316 321 324 324 323 329 336 333 328 329 333 336 338 342 347 351 355 359 1 2 5 7 7 10 14 17